Location: ????
(32.1228°N, 34.8377°E)
Time: 00:40:47
(UTC+00:00)

Cosmos 2322 Rocket - Pass Details

Date: 21 September 2020
Orbit: 831 x 852 km, 71.0° (Epoch: 21 October)

Event Time Altitude Azimuth Distance (km) Brightness Sun altitude
Exits shadow 02:07:52 26° 232° (SW) 1,589 3.1 -17.7°
Maximum altitude 02:10:44 49° 293° (WNW) 1,079 2.4 -17.1°
Drops below altitude 10° 02:16:14 10° 8° (N) 2,476 4.9 -16.0°
Sets 02:18:47 0° 14° (NNE) 3,417 5.7 -15.5°
